Location: Gerlach
(40.6516°N, 119.3568°W)
Time: 13:49:45
(UTC-07:00)

A-11 Canister half - Pass Details

Date: 29 February 2024
Orbit: 1525 x 1683 km, 47.3° (Epoch: 21 April)

Event Time Altitude Azimuth Distance (km) Brightness Sun altitude
Rises 18:41:06 0° 221° (SW) 4,823 12.3 -10.8°
Reaches altitude 10° 18:44:18 10° 218° (SW) 3,818 11.6 -11.4°
Maximum altitude 18:53:44 60° 141° (SE) 1,763 9.1 -13.2°
Enters shadow 19:01:51 14° 67° (ENE) 3,397 10.3 -14.7°
